Wind_Speed
6 7 6 6 5 4 4 3 2 3 3 3 3 3 3 2 2 3 3 3 4 4 5 5 5 5 6 6 6 6 6 7 6 6 6 6 6 6 7 6 6 5 5
5 6 5 5 5 4 3 3 2 3 4 3 3 3 2 2 2 2 2 3 3 4 4 4 5 5 5 5 6 6 6 6 7 6 7 7 7 7 7 7 6 6 6
4 4 4 4 4 4 3 3 3 3 4 3 3 3 3 3 3 2 2 3 4 4 5 5 5 5 5 6 6 6 6 6 6 7 7 7 7 8 8 8 8 8 8
4 3 4 4 4 4 3 3 3 4 4 4 4 3 3 4 3 3 4 4 5 5 5 5 5 6 6 6 6 6 7 7 7 7 8 8 8 8 8 8 9 9 9
4 3 3 4 4 4 4 3 3 3 4 4 4 3 3 4 4 4 4 5 5 6 6 6 6 7 7 7 7 7 8 8 9 9 9 9 9 9 10 10 10 10 10
4 3 3 3 4 4 4 3 2 3 4 4 4 4 4 4 5 5 5 5 5 6 6 7 7 7 7 8 8 8 9 9 9 10 10 10 10 10 11 11 11 11 11
3 3 4 4 3 3 3 3 3 4 5 5 5 5 5 5 5 5 5 6 6 7 7 7 7 7 8 9 9 9 9 10 10 10 10 11 10 11 11 12 12 12 12
3 4 4 4 3 3 3 4 4 4 6 6 6 6 5 5 6 6 6 7 7 8 7 7 8 9 9 10 10 10 11 11 11 11 11 11 11 11 12 13 13 13 13
2 3 4 5 5 4 4 5 5 6 7 7 7 6 7 7 8 8 8 9 9 9 9 9 10 10 10 10 10 10 11 12 12 12 12 12 12 13 13 13 13 14 13
5 5 5 6 6 6 6 6 7 8 8 9 8 8 9 9 10 10 10 10 10 10 10 10 11 11 11 11 12 12 12 13 13 13 13 13 14 14 14 14 15 15 15
6 7 7 7 7 7 7 8 8 8 9 10 10 10 10 10 11 11 12 12 12 13 13 13 12 12 13 13 13 14 14 14 14 14 14 15 15 15 15 15 15 16 15
8 8 8 8 9 9 9 9 10 10 11 11 11 12 12 13 13 14 13 14 14 15 15 15 15 15 15 15 15 16 16 16 16 16 16 16 16 15 15 16 16 16 16
10 10 10 10 10 11 11 12 12 12 13 13 14 14 14 15 15 15 15 16 17 17 17 17 17 17 16 16 17 17 17 17 18 18 18 18 17 17 17 17 17 17 17
12 12 12 12 12 13 14 14 14 14 14 15 15 16 17 17 18 18 18 18 18 19 19 18 18 18 18 18 18 18 18 19 19 19 20 20 19 19 18 18 18 18 18
13 13 14 14 14 15 16 16 16 16 16 17 18 18 19 20 20 20 20 19 19 19 20 20 20 20 20 20 19 20 20 20 20 20 21 21 21 20 20 20 20 20 20
16 16 16 17 17 17 17 18 17 18 19 19 20 21 21 21 21 21 21 20 20 21 20 21 22 22 22 21 21 21 22 22 21 22 22 22 22 22 23 22 22 21 22
18 19 19 19 19 19 19 20 19 19 20 21 22 23 23 23 23 23 23 23 23 22 22 22 23 23 23 22 22 22 23 22 22 23 23 24 24 25 24 24 24 24 24
20 20 20 20 21 21 22 22 21 22 23 24 24 25 25 25 25 24 25 24 24 24 24 23 24 24 25 24 24 24 24 24 24 24 25 25 25 26 26 26 26 26 26
22 21 21 22 23 23 23 24 25 25 25 26 26 27 27 27 26 26 26 26 25 25 25 25 26 26 27 26 25 25 25 26 26 26 26 26 27 27 27 27 27 27 27
23 23 24 24 25 25 25 26 27 27 27 28 28 29 29 28 28 29 27 27 27 28 28 28 28 28 29 28 28 27 28 28 28 28 28 27 27 28 28 28 27 27 28
26 26 26 26 27 28 28 28 29 29 30 30 30 31 31 30 30 29 29 29 30 31 30 30 30 30 30 30 30 30 30 30 30 30 30 29 30 29 29 29 29 29 29
28 28 28 28 29 30 30 31 32 32 32 32 32 33 33 33 32 32 32 32 32 32 32 33 33 33 32 33 33 33 32 32 32 33 33 32 32 31 31 31 31 31 31
29 30 30 30 31 31 31 32 33 33 33 33 34 35 35 35 34 34 34 35 35 35 35 35 34 34 35 35 35 35 35 35 35 35 35 34 34 33 32 32 32 32 32
31 31 31 31 31 31 32 32 33 34 35 36 36 36 37 37 36 35 36 36 37 37 36 37 36 36 37 37 37 37 37 37 37 37 37 36 35 35 34 33 33 33 33
33 33 33 33 33 33 34 34 35 35 35 36 37 37 37 37 37 36 37 37 38 38 37 37 37 38 39 39 39 39 39 40 40 39 39 39 38 37 36 35 34 34 34
35 35 35 36 36 35 35 35 35 36 36 36 36 36 36 36 36 37 37 36 37 37 38 39 39 39 40 40 40 40 41 41 41 41 40 41 40 39 37 36 36 35 35
Wind_Direction
185 186 189 190 192 196 193 182 176 186 192 188 181 181 183 191 208 225 239 249 258 262 270 276 275 280 286 289 293 292 288 288 289 294 290 283 284 284 279 282 282 283 285
171 177 187 186 186 195 199 194 206 210 216 206 186 187 198 202 210 226 255 271 280 279 279 280 277 280 288 291 289 290 292 294 291 294 296 286 284 283 280 279 281 283 288
172 182 186 189 196 209 221 219 220 219 218 210 200 210 217 228 235 250 268 296 286 286 288 283 282 282 283 286 290 290 288 291 292 297 298 292 287 284 286 284 282 283 285
184 190 195 204 208 217 228 227 222 221 221 225 226 238 243 246 251 264 270 283 292 294 298 298 296 298 296 295 296 296 290 293 295 299 300 294 291 286 285 287 285 285 284
199 206 208 222 232 227 226 227 226 227 233 234 239 255 259 260 271 275 280 287 290 292 295 297 295 296 296 293 295 296 295 295 294 292 294 295 289 286 285 285 286 286 284
206 216 231 243 240 229 224 226 229 237 244 247 262 264 259 269 286 287 290 287 292 294 296 294 290 292 293 293 290 293 296 298 298 294 293 293 289 286 288 287 288 284 282
221 233 234 238 239 230 231 230 243 259 266 273 275 271 267 269 276 275 278 282 290 296 295 291 290 293 294 293 292 291 296 298 300 295 291 290 288 286 289 289 288 287 282
250 246 244 247 247 251 256 253 261 272 276 278 276 273 275 273 273 275 282 290 291 296 292 288 286 289 290 293 293 293 296 299 301 297 292 291 289 288 288 286 286 286 286
272 276 266 257 262 270 270 265 267 277 280 275 274 273 275 276 278 278 285 292 296 296 293 288 287 289 290 293 295 297 297 298 299 298 294 291 290 290 289 287 285 285 287
287 286 274 266 268 270 272 276 276 277 277 271 274 275 277 277 280 285 286 288 293 296 294 291 289 290 289 290 291 294 295 296 297 296 295 293 292 292 292 290 287 288 287
293 287 285 276 271 272 273 275 278 281 282 278 276 278 282 281 282 283 285 288 292 294 293 293 292 292 290 287 287 288 289 293 294 293 293 293 294 293 292 290 289 288 287
287 284 280 277 270 271 273 275 278 278 279 280 279 280 282 284 285 287 284 286 287 289 292 292 292 291 292 289 287 287 285 288 288 289 290 290 291 292 291 290 289 288 287
283 286 283 277 273 274 274 273 276 276 277 278 280 281 282 286 287 287 285 285 286 286 288 290 290 290 291 291 292 289 284 286 286 286 287 289 289 289 289 290 290 289 287
282 282 281 278 276 276 274 275 275 276 277 278 279 282 284 286 287 287 286 285 285 284 284 287 289 290 289 289 290 290 289 288 285 285 286 287 288 289 288 288 289 289 287
280 279 277 276 277 276 274 276 276 277 278 279 281 282 284 285 287 288 286 286 287 286 284 285 286 287 288 287 286 288 289 288 287 285 285 285 286 287 287 287 287 287 287
279 278 277 278 279 277 276 276 276 275 276 278 281 283 284 285 286 286 285 285 285 286 283 282 284 285 288 286 285 286 287 287 288 288 286 285 284 284 284 284 285 285 285
281 278 277 280 278 276 277 278 279 278 277 279 281 282 284 286 287 285 285 283 283 284 285 285 285 284 285 287 288 288 287 288 287 287 285 284 283 283 282 283 283 283 283
282 283 281 281 279 277 277 277 279 281 282 282 282 283 285 285 286 286 286 283 282 284 284 283 285 285 286 286 287 288 287 287 287 285 284 284 283 281 281 281 282 282 282
280 281 283 281 278 278 278 278 279 282 283 282 283 284 286 285 283 283 285 284 283 282 283 283 284 285 286 285 286 286 286 286 286 286 285 285 284 282 281 281 282 282 281
279 279 280 282 281 279 280 279 280 282 282 283 284 284 285 284 283 284 284 283 283 282 283 283 284 284 284 284 283 283 284 285 285 286 286 285 285 282 281 281 282 281 281
280 280 280 281 282 281 281 281 281 282 282 283 283 282 283 286 287 287 285 284 283 282 282 283 284 284 284 283 284 283 283 283 282 284 284 284 284 282 280 279 280 279 279
280 281 281 282 283 282 282 281 282 281 281 281 281 282 284 286 288 287 286 284 283 282 281 282 282 283 283 283 284 283 284 284 283 284 284 284 283 282 280 278 278 278 278
280 281 282 282 283 284 283 283 283 282 282 282 283 284 284 284 285 286 286 284 284 282 281 282 283 283 282 282 283 283 283 282 282 282 283 283 283 281 282 281 279 277 276
278 280 279 280 281 281 282 283 283 283 282 283 283 284 284 284 284 285 284 283 283 284 282 281 281 282 282 282 282 283 282 282 281 281 280 280 280 280 280 280 279 276 275
277 279 281 281 279 280 282 283 283 284 284 285 284 283 283 283 285 284 284 283 283 285 285 283 282 282 282 281 281 281 282 281 282 281 280 279 278 278 278 278 277 275 274
277 278 279 281 280 282 283 283 283 284 284 285 284 283 283 283 282 283 283 283 283 284 284 284 283 283 283 282 280 279 281 282 281 280 278 277 277 276 275 275 275 275 274
Height
5890 5891 5892 5893 5895 5896 5897 5898 5899 5900 5901 5902 5903 5904 5905 5905 5906 5907 5907 5907 5907 5908 5908 5908 5908 5908 5908 5908 5908 5909 5909 5909 5909 5909 5909 5909 5909 5909 5908 5908 5908 5908 5908
5890 5891 5893 5894 5895 5896 5897 5898 5899 5900 5901 5902 5903 5904 5905 5905 5906 5907 5907 5907 5907 5907 5907 5907 5907 5907 5907 5907 5907 5907 5907 5908 5907 5907 5907 5907 5907 5907 5907 5907 5907 5907 5907
5891 5892 5893 5894 5895 5896 5897 5898 5899 5900 5901 5902 5903 5904 5904 5905 5906 5906 5906 5906 5907 5906 5906 5906 5906 5906 5906 5906 5906 5906 5906 5906 5906 5906 5906 5906 5906 5906 5906 5906 5905 5905 5905
5891 5892 5893 5895 5895 5896 5897 5898 5899 5900 5901 5901 5902 5903 5904 5904 5905 5905 5906 5906 5906 5906 5905 5905 5905 5905 5905 5905 5905 5905 5905 5905 5905 5904 5904 5904 5904 5904 5904 5904 5903 5903 5903
5891 5892 5893 5895 5895 5896 5897 5898 5899 5900 5900 5901 5902 5903 5903 5904 5904 5904 5905 5905 5905 5905 5904 5904 5904 5904 5904 5903 5903 5903 5903 5903 5903 5903 5903 5902 5902 5902 5902 5901 5901 5901 5901
5892 5893 5893 5894 5895 5896 5897 5897 5898 5899 5900 5901 5901 5902 5902 5903 5903 5903 5903 5903 5903 5903 5903 5903 5903 5902 5902 5902 5902 5902 5901 5901 5901 5900 5900 5900 5900 5899 5899 5899 5899 5898 5898
5892 5893 5894 5894 5895 5895 5896 5897 5898 5899 5899 5900 5901 5901 5901 5901 5902 5902 5902 5902 5902 5902 5901 5901 5901 5901 5901 5900 5900 5900 5900 5899 5899 5898 5898 5897 5897 5897 5897 5896 5896 5896 5895
5891 5892 5893 5894 5894 5895 5896 5897 5897 5898 5899 5899 5899 5899 5900 5900 5900 5900 5900 5900 5900 5900 5900 5899 5899 5899 5899 5899 5898 5898 5897 5897 5896 5896 5895 5895 5894 5894 5894 5893 5893 5893 5892
5891 5892 5893 5893 5894 5894 5895 5896 5896 5897 5897 5897 5897 5898 5898 5899 5899 5899 5899 5898 5898 5898 5898 5897 5897 5897 5897 5896 5896 5895 5895 5895 5894 5893 5893 5892 5892 5891 5890 5890 5890 5889 5889
5890 5891 5892 5892 5892 5893 5894 5894 5895 5895 5896 5896 5896 5896 5897 5897 5897 5897 5897 5896 5896 5896 5895 5895 5894 5894 5894 5894 5894 5893 5892 5892 5891 5891 5890 5889 5888 5888 5887 5887 5886 5886 5885
5889 5890 5890 5890 5891 5892 5892 5893 5893 5893 5893 5894 5894 5894 5894 5894 5894 5894 5894 5893 5893 5893 5892 5892 5891 5891 5891 5891 5891 5890 5889 5888 5888 5888 5887 5886 5885 5885 5884 5883 5883 5882 5882
5888 5888 5888 5888 5889 5890 5890 5891 5891 5891 5891 5891 5891 5891 5891 5891 5891 5891 5891 5890 5890 5889 5889 5888 5888 5888 5888 5887 5887 5886 5885 5885 5885 5884 5883 5883 5882 5881 5880 5880 5879 5878 5878
5886 5886 5886 5886 5887 5887 5888 5888 5888 5888 5888 5888 5888 5888 5888 5888 5887 5887 5887 5887 5886 5886 5886 5884 5884 5884 5883 5883 5883 5882 5881 5881 5880 5880 5879 5878 5878 5877 5877 5876 5875 5874 5874
5884 5884 5884 5884 5884 5884 5884 5885 5884 5884 5885 5885 5885 5885 5884 5884 5883 5883 5883 5882 5882 5882 5881 5880 5880 5879 5879 5879 5878 5878 5877 5876 5876 5875 5874 5874 5873 5873 5872 5871 5871 5870 5869
5881 5881 5881 5881 5881 5881 5881 5881 5881 5881 5881 5881 5880 5880 5880 5879 5879 5879 5878 5878 5878 5877 5877 5876 5876 5875 5874 5874 5873 5873 5872 5871 5870 5870 5869 5869 5868 5868 5867 5866 5866 5865 5864
5877 5877 5877 5877 5877 5876 5876 5876 5876 5876 5876 5876 5876 5876 5875 5875 5874 5874 5873 5872 5872 5872 5871 5871 5870 5870 5869 5869 5868 5867 5866 5866 5865 5864 5863 5863 5862 5862 5861 5861 5860 5859 5859
5873 5873 5873 5873 5872 5872 5872 5872 5872 5872 5871 5871 5871 5871 5870 5869 5869 5868 5867 5867 5866 5866 5866 5866 5865 5864 5863 5863 5862 5861 5861 5860 5859 5858 5857 5857 5856 5855 5855 5854 5854 5853 5852
5868 5868 5868 5868 5868 5867 5867 5867 5866 5866 5866 5866 5865 5865 5864 5863 5863 5862 5861 5860 5860 5860 5860 5860 5859 5858 5857 5857 5856 5855 5854 5854 5853 5852 5851 5850 5849 5848 5848 5847 5846 5846 5845
5863 5863 5863 5862 5862 5862 5862 5861 5861 5861 5860 5860 5859 5859 5858 5857 5856 5855 5855 5854 5853 5853 5853 5853 5852 5851 5850 5850 5849 5848 5848 5847 5846 5845 5844 5843 5842 5841 5840 5840 5839 5838 5838
5857 5857 5857 5856 5856 5856 5855 5855 5855 5854 5854 5853 5853 5852 5851 5850 5849 5848 5848 5847 5846 5846 5845 5845 5844 5843 5843 5842 5841 5841 5840 5839 5838 5837 5836 5835 5834 5833 5832 5832 5831 5830 5830
5850 5850 5850 5850 5849 5849 5849 5848 5848 5847 5847 5846 5845 5845 5843 5842 5842 5841 5840 5840 5839 5838 5837 5836 5836 5835 5834 5833 5833 5832 5831 5830 5829 5829 5828 5827 5826 5825 5824 5823 5822 5822 5821
5844 5843 5843 5843 5842 5842 5841 5841 5840 5839 5838 5838 5837 5836 5835 5834 5834 5833 5832 5831 5830 5829 5828 5828 5827 5826 5825 5824 5823 5822 5821 5821 5820 5819 5818 5818 5817 5816 5815 5814 5813 5813 5812
5836 5836 5836 5835 5834 5834 5833 5832 5831 5830 5830 5829 5828 5827 5826 5826 5825 5824 5823 5822 5821 5820 5819 5818 5817 5817 5816 5815 5814 5813 5812 5811 5810 5808 5807 5807 5806 5805 5804 5804 5803 5803 5802
5828 5828 5827 5827 5826 5825 5824 5823 5823 5822 5821 5820 5819 5818 5817 5816 5815 5814 5813 5812 5811 5810 5808 5807 5807 5807 5805 5804 5803 5802 5801 5800 5799 5797 5796 5796 5796 5795 5794 5793 5793 5792 5791
5819 5819 5818 5818 5817 5816 5816 5815 5814 5812 5812 5811 5809 5808 5807 5807 5806 5804 5803 5802 5801 5799 5798 5797 5796 5795 5794 5793 5792 5791 5790 5789 5788 5787 5785 5784 5784 5784 5783 5782 5781 5781 5781
5810 5810 5809 5809 5808 5807 5807 5806 5804 5803 5802 5801 5800 5799 5798 5797 5796 5794 5793 5792 5790 5789 5788 5786 5785 5784 5783 5782 5780 5779 5778 5777 5776 5776 5774 5773 5772 5772 5772 5771 5771 5770 5770